TimePST,TemperatureF,Dew PointF,Humidity,Sea Level PressureIn,VisibilityMPH,Wind Direction,Wind SpeedMPH,Gust SpeedMPH,PrecipitationIn,Events,Conditions,WindDirDegrees,DateUTC
12:56 AM,33.1,24.1,70,29.96,10.0,SE,5.8,-,N/A,,Clear,140,2013-03-08 08:56:00
1:56 AM,32.0,24.1,73,29.96,10.0,East,3.5,-,N/A,,Clear,90,2013-03-08 09:56:00
2:56 AM,33.1,23.0,66,29.95,10.0,Calm,Calm,-,N/A,,Clear,0,2013-03-08 10:56:00
3:56 AM,32.0,21.9,66,29.95,10.0,NNE,3.5,-,N/A,,Clear,30,2013-03-08 11:56:00
4:56 AM,34.0,23.0,64,29.95,10.0,Calm,Calm,-,N/A,,Clear,0,2013-03-08 12:56:00
5:56 AM,32.0,23.0,69,29.97,10.0,North,3.5,-,N/A,,Clear,10,2013-03-08 13:56:00
6:56 AM,30.9,24.1,76,29.99,10.0,North,4.6,-,N/A,,Clear,360,2013-03-08 14:56:00
7:56 AM,32.0,24.1,73,29.98,10.0,NNE,5.8,-,N/A,,Clear,30,2013-03-08 15:56:00
8:56 AM,33.1,25.0,72,29.99,10.0,NNE,4.6,-,N/A,,Clear,20,2013-03-08 16:56:00
9:56 AM,34.0,26.1,73,30.00,10.0,NNE,3.5,-,N/A,,Clear,30,2013-03-08 17:56:00
10:56 AM,35.1,26.1,70,29.99,10.0,Variable,4.6,-,N/A,,Clear,0,2013-03-08 18:56:00
11:56 AM,35.1,28.0,76,29.99,10.0,Variable,3.5,-,N/A,,Clear,0,2013-03-08 19:56:00
12:56 PM,36.0,28.9,76,29.99,10.0,Variable,4.6,-,N/A,,Clear,0,2013-03-08 20:56:00
1:56 PM,39.0,30.9,73,29.98,10.0,NNW,3.5,-,N/A,,Partly Cloudy,330,2013-03-08 21:56:00
2:56 PM,39.0,28.0,65,29.98,10.0,Variable,3.5,-,N/A,,Partly Cloudy,0,2013-03-08 22:56:00
3:56 PM,37.9,28.0,68,29.99,10.0,Variable,3.5,-,N/A,,Clear,0,2013-03-08 23:56:00
4:56 PM,34.0,28.9,82,30.01,10.0,Variable,5.8,-,N/A,,Clear,0,2013-03-09 00:56:00
5:56 PM,32.0,27.0,82,30.05,10.0,NNW,10.4,23.0,N/A,,Clear,340,2013-03-09 01:56:00
6:56 PM,30.9,28.9,92,30.08,10.0,North,8.1,17.3,N/A,,Scattered Clouds,350,2013-03-09 02:56:00
7:06 PM,30.2,28.4,93,30.01,10.0,Variable,5.8,-,N/A,,Mostly Cloudy,0,2013-03-09 03:06:00
7:44 PM,30.2,30.2,100,30.02,2.0,NNW,8.1,-,N/A,,Overcast,340,2013-03-09 03:44:00
7:52 PM,30.2,30.2,100,30.02,1.2,North,9.2,-,N/A,,Overcast,350,2013-03-09 03:52:00
7:56 PM,30.9,30.0,96,30.10,1.0,North,12.7,18.4,N/A,,Overcast,350,2013-03-09 03:56:00
8:05 PM,32.0,30.2,93,30.03,2.0,North,12.7,24.2,N/A,,Overcast,360,2013-03-09 04:05:00
8:15 PM,32.0,30.2,93,30.03,10.0,North,12.7,24.2,N/A,,Mostly Cloudy,360,2013-03-09 04:15:00
8:56 PM,32.0,30.9,96,30.13,10.0,North,13.8,20.7,N/A,,Scattered Clouds,360,2013-03-09 04:56:00
9:56 PM,32.0,30.9,96,30.15,10.0,North,12.7,19.6,N/A,,Clear,360,2013-03-09 05:56:00
10:14 PM,32.0,30.2,93,30.08,5.0,North,11.5,-,N/A,,Partly Cloudy,10,2013-03-09 06:14:00
10:35 PM,32.0,30.2,93,30.09,1.5,North,9.2,-,N/A,,Partly Cloudy,350,2013-03-09 06:35:00
10:37 PM,32.0,30.2,93,30.09,0.8,North,9.2,-,N/A,,Mist,350,2013-03-09 06:37:00
10:46 PM,32.0,30.2,93,30.09,0.2,North,9.2,-,N/A,Fog,Fog,350,2013-03-09 06:46:00
10:56 PM,32.0,30.9,96,30.15,0.2,North,10.4,-,N/A,Fog,Fog,350,2013-03-09 06:56:00
11:56 PM,32.0,30.9,96,30.17,0.2,North,10.4,-,N/A,Fog,Fog,360,2013-03-09 07:56:00